Time,TemperatureF,DewpointF,PressureIn,WindDirection,WindDirectionDegrees,WindSpeedMPH,WindSpeedGustMPH,Humidity,HourlyPrecipIn,Conditions,Clouds,dailyrainin,SoftwareType,DateUTC
2013-12-05 00:04:00,36.7,33.8,29.65,WNW,294,9.0,29.0,89,0.00,,,0.01,meteohub,2013-12-05 06:04:00,
2013-12-05 00:09:00,36.5,33.8,29.66,West,269,6.0,23.0,90,0.00,,,0.01,meteohub,2013-12-05 06:09:00,
2013-12-05 00:14:00,36.3,33.6,29.66,NW,304,8.0,22.0,90,0.00,,,0.01,meteohub,2013-12-05 06:14:00,
2013-12-05 00:19:00,36.1,33.3,29.66,West,275,7.0,22.0,89,0.00,,,0.01,meteohub,2013-12-05 06:19:00,
2013-12-05 00:24:00,36.0,32.7,29.67,WNW,286,13.0,20.0,88,0.00,,,0.01,meteohub,2013-12-05 06:24:00,
2013-12-05 00:29:00,35.8,32.9,29.67,WNW,300,15.0,24.0,89,0.00,,,0.01,meteohub,2013-12-05 06:29:00,
2013-12-05 00:34:00,35.4,32.5,29.68,NW,306,13.0,31.0,89,0.00,,,0.01,meteohub,2013-12-05 06:34:00,
2013-12-05 00:40:00,35.2,32.5,29.68,WSW,250,7.0,31.0,90,0.00,,,0.01,meteohub,2013-12-05 06:40:00,
2013-12-05 00:45:00,34.9,32.0,29.68,WNW,288,14.0,25.0,89,0.00,,,0.01,meteohub,2013-12-05 06:45:00,
2013-12-05 00:50:00,34.5,31.8,29.68,WNW,286,20.0,26.0,90,0.00,,,0.01,meteohub,2013-12-05 06:50:00,
2013-12-05 00:55:00,34.3,31.6,29.67,WSW,257,6.0,26.0,90,0.00,,,0.01,meteohub,2013-12-05 06:55:00,
2013-12-05 01:00:00,34.3,31.6,29.68,WSW,258,9.0,25.0,90,0.00,,,0.01,meteohub,2013-12-05 07:00:00,
2013-12-05 01:05:00,34.3,31.6,29.68,WNW,282,10.0,25.0,90,0.00,,,0.01,meteohub,2013-12-05 07:05:00,
2013-12-05 01:10:00,34.3,31.6,29.68,WNW,283,9.0,23.0,90,0.00,,,0.01,meteohub,2013-12-05 07:10:00,
2013-12-05 01:15:00,34.3,31.5,29.69,West,279,10.0,23.0,89,0.00,,,0.01,meteohub,2013-12-05 07:15:00,
2013-12-05 01:20:00,34.5,31.3,29.70,WNW,294,10.0,27.0,88,0.00,,,0.01,meteohub,2013-12-05 07:20:00,
2013-12-05 01:25:00,34.5,31.3,29.71,WNW,286,11.0,27.0,88,0.00,,,0.01,meteohub,2013-12-05 07:25:00,
2013-12-05 01:30:00,34.3,31.5,29.71,WNW,286,8.0,27.0,89,0.00,,,0.01,meteohub,2013-12-05 07:30:00,
2013-12-05 01:35:00,34.2,31.3,29.70,WNW,290,9.0,22.0,89,0.00,,,0.01,meteohub,2013-12-05 07:35:00,
2013-12-05 01:40:00,34.2,31.3,29.71,NW,314,9.0,22.0,89,0.00,,,0.01,meteohub,2013-12-05 07:40:00,
2013-12-05 01:45:00,34.2,31.3,29.72,West,273,21.0,22.0,89,0.00,,,0.01,meteohub,2013-12-05 07:45:00,
2013-12-05 01:50:00,34.0,31.1,29.72,WNW,288,12.0,22.0,89,0.00,,,0.01,meteohub,2013-12-05 07:50:00,
2013-12-05 01:55:00,33.8,30.9,29.72,WSW,244,13.0,22.0,89,0.00,,,0.01,meteohub,2013-12-05 07:55:00,
2013-12-05 02:00:00,33.6,30.7,29.72,West,263,4.0,21.0,89,0.00,,,0.01,meteohub,2013-12-05 08:00:00,
2013-12-05 02:05:00,33.4,30.6,29.73,WNW,288,19.0,19.0,89,0.00,,,0.01,meteohub,2013-12-05 08:05:00,
2013-12-05 02:11:00,33.4,30.7,29.73,NW,311,11.0,19.0,90,0.00,,,0.01,meteohub,2013-12-05 08:11:00,
2013-12-05 02:16:00,33.3,30.6,29.73,WNW,285,11.0,20.0,90,0.00,,,0.01,meteohub,2013-12-05 08:16:00,
2013-12-05 02:21:00,33.1,30.2,29.72,West,279,14.0,20.0,89,0.00,,,0.01,meteohub,2013-12-05 08:21:00,
2013-12-05 02:26:00,33.1,30.4,29.72,West,260,8.0,20.0,90,0.00,,,0.01,meteohub,2013-12-05 08:26:00,
2013-12-05 02:31:00,32.9,30.4,29.73,WNW,286,10.0,20.0,90,0.00,,,0.01,meteohub,2013-12-05 08:31:00,
2013-12-05 02:36:00,32.7,29.8,29.73,WNW,303,10.0,16.0,89,0.00,,,0.01,meteohub,2013-12-05 08:36:00,
2013-12-05 02:41:00,32.7,29.8,29.73,WNW,291,12.0,16.0,89,0.00,,,0.01,meteohub,2013-12-05 08:41:00,
2013-12-05 02:46:00,32.7,29.5,29.73,NNW,330,10.0,25.0,88,0.00,,,0.01,meteohub,2013-12-05 08:46:00,
2013-12-05 02:51:00,32.7,29.5,29.73,West,277,6.0,25.0,88,0.00,,,0.01,meteohub,2013-12-05 08:51:00,
2013-12-05 02:56:00,32.7,29.3,29.73,WNW,284,7.0,25.0,87,0.00,,,0.01,meteohub,2013-12-05 08:56:00,
2013-12-05 03:02:00,32.5,29.1,29.74,WSW,248,9.0,23.0,87,0.00,,,0.01,meteohub,2013-12-05 09:02:00,
2013-12-05 03:07:00,32.5,29.1,29.75,WNW,289,5.0,23.0,87,0.00,,,0.01,meteohub,2013-12-05 09:07:00,
2013-12-05 03:12:00,32.5,29.1,29.77,WNW,289,12.0,23.0,87,0.00,,,0.01,meteohub,2013-12-05 09:12:00,
2013-12-05 03:17:00,32.5,28.8,29.78,West,276,12.0,21.0,86,0.00,,,0.01,meteohub,2013-12-05 09:17:00,
2013-12-05 03:22:00,32.5,28.6,29.78,West,261,12.0,21.0,85,0.00,,,0.01,meteohub,2013-12-05 09:22:00,
2013-12-05 03:27:00,32.4,28.6,29.78,West,280,5.0,23.0,86,0.00,,,0.01,meteohub,2013-12-05 09:27:00,
2013-12-05 03:32:00,32.2,28.4,29.78,WNW,288,13.0,23.0,86,0.00,,,0.01,meteohub,2013-12-05 09:32:00,
2013-12-05 03:37:00,32.0,27.7,29.78,WNW,286,8.0,24.0,84,0.00,,,0.01,meteohub,2013-12-05 09:37:00,
2013-12-05 03:42:00,31.8,27.5,29.78,WNW,296,11.0,25.0,84,0.00,,,0.01,meteohub,2013-12-05 09:42:00,
2013-12-05 03:47:00,31.8,27.5,29.78,West,276,7.0,25.0,84,0.00,,,0.01,meteohub,2013-12-05 09:47:00,
2013-12-05 03:52:00,31.8,27.5,29.80,West,278,16.0,22.0,84,0.00,,,0.01,meteohub,2013-12-05 09:52:00,
2013-12-05 03:57:00,31.6,27.3,29.80,WNW,298,10.0,24.0,84,0.00,,,0.01,meteohub,2013-12-05 09:57:00,
2013-12-05 04:02:00,31.5,27.0,29.80,WNW,294,16.0,24.0,83,0.00,,,0.01,meteohub,2013-12-05 10:02:00,
2013-12-05 04:07:00,31.3,27.0,29.81,West,271,15.0,26.0,84,0.00,,,0.01,meteohub,2013-12-05 10:07:00,
2013-12-05 04:12:00,31.3,27.0,29.81,West,277,7.0,26.0,84,0.00,,,0.01,meteohub,2013-12-05 10:12:00,
2013-12-05 04:17:00,31.1,26.8,29.81,West,277,8.0,26.0,84,0.00,,,0.01,meteohub,2013-12-05 10:17:00,
2013-12-05 04:22:00,30.7,26.8,29.81,WNW,286,7.0,24.0,85,0.00,,,0.01,meteohub,2013-12-05 10:22:00,
2013-12-05 04:27:00,30.7,26.4,29.81,WSW,238,9.0,21.0,84,0.00,,,0.01,meteohub,2013-12-05 10:27:00,
2013-12-05 04:32:00,30.6,26.2,29.81,WNW,286,8.0,26.0,84,0.00,,,0.01,meteohub,2013-12-05 10:32:00,
2013-12-05 04:37:00,30.6,26.2,29.81,NW,309,7.0,26.0,84,0.00,,,0.01,meteohub,2013-12-05 10:37:00,
2013-12-05 04:42:00,30.6,26.2,29.83,WSW,252,9.0,26.0,84,0.00,,,0.01,meteohub,2013-12-05 10:42:00,
2013-12-05 04:47:00,30.7,26.4,29.83,West,261,26.0,26.0,84,0.00,,,0.01,meteohub,2013-12-05 10:47:00,
2013-12-05 04:52:00,30.6,26.1,29.83,NW,313,10.0,26.0,83,0.00,,,0.01,meteohub,2013-12-05 10:52:00,
2013-12-05 04:57:00,30.6,26.1,29.82,WNW,290,19.0,26.0,83,0.00,,,0.01,meteohub,2013-12-05 10:57:00,
2013-12-05 05:02:00,30.6,26.1,29.82,West,272,7.0,26.0,83,0.00,,,0.01,meteohub,2013-12-05 11:02:00,
2013-12-05 05:07:00,30.6,26.1,29.83,WNW,286,12.0,23.0,83,0.00,,,0.01,meteohub,2013-12-05 11:07:00,
2013-12-05 05:12:00,30.4,26.1,29.83,WNW,286,10.0,23.0,84,0.00,,,0.01,meteohub,2013-12-05 11:12:00,
2013-12-05 05:17:00,30.4,25.9,29.83,WNW,290,13.0,25.0,83,0.00,,,0.01,meteohub,2013-12-05 11:17:00,
2013-12-05 05:22:00,30.4,25.5,29.84,WNW,299,9.0,25.0,82,0.00,,,0.01,meteohub,2013-12-05 11:22:00,
2013-12-05 05:27:00,30.4,25.9,29.84,WNW,296,7.0,25.0,83,0.00,,,0.01,meteohub,2013-12-05 11:27:00,
2013-12-05 05:32:00,30.0,25.5,29.84,West,279,10.0,25.0,83,0.00,,,0.01,meteohub,2013-12-05 11:32:00,
2013-12-05 05:37:00,29.8,25.3,29.83,WSW,257,11.0,25.0,83,0.00,,,0.01,meteohub,2013-12-05 11:37:00,
2013-12-05 05:42:00,29.8,25.0,29.84,West,273,9.0,23.0,82,0.00,,,0.01,meteohub,2013-12-05 11:42:00,
2013-12-05 05:47:00,29.7,24.8,29.85,West,277,9.0,23.0,82,0.00,,,0.01,meteohub,2013-12-05 11:47:00,
2013-12-05 05:52:00,29.5,24.6,29.85,NW,322,11.0,20.0,82,0.00,,,0.01,meteohub,2013-12-05 11:52:00,
2013-12-05 05:57:00,29.3,24.4,29.86,WNW,286,10.0,21.0,82,0.00,,,0.01,meteohub,2013-12-05 11:57:00,
2013-12-05 06:02:00,28.9,24.1,29.86,NW,308,13.0,21.0,82,0.00,,,0.01,meteohub,2013-12-05 12:02:00,
2013-12-05 06:07:00,28.8,23.9,29.84,West,281,14.0,23.0,82,0.00,,,0.01,meteohub,2013-12-05 12:07:00,
2013-12-05 06:12:00,28.6,23.7,29.86,WNW,288,13.0,23.0,82,0.00,,,0.01,meteohub,2013-12-05 12:12:00,
2013-12-05 06:17:00,28.2,23.4,29.87,WNW,295,11.0,25.0,82,0.00,,,0.01,meteohub,2013-12-05 12:17:00,
2013-12-05 06:22:00,28.2,23.4,29.87,NW,315,13.0,25.0,82,0.00,,,0.01,meteohub,2013-12-05 12:22:00,
2013-12-05 06:27:00,28.2,23.4,29.88,WNW,292,18.0,25.0,82,0.00,,,0.01,meteohub,2013-12-05 12:27:00,
2013-12-05 06:32:00,28.0,23.2,29.88,WNW,289,19.0,22.0,82,0.00,,,0.01,meteohub,2013-12-05 12:32:00,
2013-12-05 06:37:00,28.0,23.2,29.88,West,277,12.0,23.0,82,0.00,,,0.01,meteohub,2013-12-05 12:37:00,
2013-12-05 06:42:00,28.0,23.0,29.88,NW,314,13.0,25.0,81,0.00,,,0.01,meteohub,2013-12-05 12:42:00,
2013-12-05 06:47:00,28.0,23.0,29.89,NW,317,9.0,25.0,81,0.00,,,0.01,meteohub,2013-12-05 12:47:00,
2013-12-05 06:52:00,28.0,22.6,29.90,NW,307,20.0,25.0,80,0.00,,,0.01,meteohub,2013-12-05 12:52:00,
2013-12-05 06:57:00,27.9,22.3,29.89,WNW,282,14.0,27.0,79,0.00,,,0.01,meteohub,2013-12-05 12:57:00,
2013-12-05 07:02:00,27.9,22.3,29.90,West,277,10.0,27.0,79,0.00,,,0.01,meteohub,2013-12-05 13:02:00,
2013-12-05 07:07:00,27.7,22.1,29.90,WNW,294,12.0,27.0,79,0.00,,,0.01,meteohub,2013-12-05 13:07:00,
2013-12-05 07:12:00,27.3,21.4,29.90,West,271,9.0,24.0,78,0.00,,,0.01,meteohub,2013-12-05 13:12:00,
2013-12-05 07:17:00,27.1,21.6,29.91,West,278,16.0,24.0,79,0.00,,,0.01,meteohub,2013-12-05 13:17:00,
2013-12-05 07:22:00,26.6,20.7,29.91,West,263,7.0,26.0,78,0.00,,,0.01,meteohub,2013-12-05 13:22:00,
2013-12-05 07:27:00,25.9,19.4,29.92,NW,304,10.0,26.0,76,0.00,,,0.01,meteohub,2013-12-05 13:27:00,
2013-12-05 07:32:00,25.2,18.7,29.92,West,273,10.0,24.0,76,0.00,,,0.01,meteohub,2013-12-05 13:32:00,
2013-12-05 07:37:00,24.6,18.5,29.92,WSW,258,14.0,24.0,77,0.00,,,0.01,meteohub,2013-12-05 13:37:00,
2013-12-05 07:42:00,24.3,18.3,29.92,West,261,9.0,28.0,78,0.00,,,0.01,meteohub,2013-12-05 13:42:00,
2013-12-05 07:47:00,24.1,18.0,29.92,West,281,15.0,28.0,77,0.00,,,0.01,meteohub,2013-12-05 13:47:00,
2013-12-05 07:52:00,23.9,17.8,29.93,WNW,296,11.0,28.0,77,0.00,,,0.01,meteohub,2013-12-05 13:52:00,
2013-12-05 07:57:00,23.7,17.6,29.94,WNW,286,11.0,24.0,77,0.00,,,0.01,meteohub,2013-12-05 13:57:00,
2013-12-05 08:02:00,23.5,17.4,29.95,WNW,284,14.0,24.0,77,0.00,,,0.01,meteohub,2013-12-05 14:02:00,
2013-12-05 08:07:00,23.5,17.4,29.95,NNW,338,15.0,23.0,77,0.00,,,0.01,meteohub,2013-12-05 14:07:00,
2013-12-05 08:12:00,23.5,17.4,29.96,NW,318,7.0,25.0,77,0.00,,,0.01,meteohub,2013-12-05 14:12:00,
2013-12-05 08:17:00,23.5,17.8,29.96,NW,304,7.0,25.0,78,0.00,,,0.01,meteohub,2013-12-05 14:17:00,
2013-12-05 08:22:00,23.5,17.8,29.97,WNW,300,18.0,32.0,78,0.00,,,0.01,meteohub,2013-12-05 14:22:00,
2013-12-05 08:27:00,23.7,18.1,29.98,West,267,12.0,32.0,79,0.00,,,0.01,meteohub,2013-12-05 14:27:00,
2013-12-05 08:32:00,23.7,18.1,29.98,NW,306,10.0,32.0,79,0.00,,,0.01,meteohub,2013-12-05 14:32:00,
2013-12-05 08:37:00,23.7,18.5,29.98,West,271,9.0,23.0,80,0.00,,,0.01,meteohub,2013-12-05 14:37:00,
2013-12-05 08:42:00,23.5,17.8,29.98,WNW,295,11.0,25.0,78,0.00,,,0.01,meteohub,2013-12-05 14:42:00,
2013-12-05 08:47:00,23.0,16.9,29.99,WNW,291,11.0,25.0,77,0.00,,,0.01,meteohub,2013-12-05 14:47:00,
2013-12-05 08:52:00,23.0,16.9,29.99,NW,313,12.0,25.0,77,0.00,,,0.01,meteohub,2013-12-05 14:52:00,
2013-12-05 08:57:00,22.8,16.3,29.99,West,267,9.0,23.0,76,0.00,,,0.01,meteohub,2013-12-05 14:57:00,
2013-12-05 09:02:00,22.8,16.3,29.99,WNW,302,15.0,22.0,76,0.00,,,0.01,meteohub,2013-12-05 15:02:00,
2013-12-05 09:07:00,22.8,16.2,29.99,West,261,11.0,23.0,75,0.00,,,0.01,meteohub,2013-12-05 15:07:00,
2013-12-05 09:12:00,22.6,15.6,30.00,WNW,292,13.0,23.0,74,0.00,,,0.01,meteohub,2013-12-05 15:12:00,
2013-12-05 09:17:00,22.8,15.8,30.00,NW,313,19.0,23.0,74,0.00,,,0.01,meteohub,2013-12-05 15:17:00,
2013-12-05 09:22:00,23.0,16.0,30.01,WNW,303,9.0,22.0,74,0.00,,,0.01,meteohub,2013-12-05 15:22:00,
2013-12-05 09:27:00,23.2,16.2,30.01,WNW,303,10.0,22.0,74,0.00,,,0.01,meteohub,2013-12-05 15:27:00,
2013-12-05 09:32:00,23.5,16.5,30.01,West,275,12.0,22.0,74,0.00,,,0.01,meteohub,2013-12-05 15:32:00,
2013-12-05 09:37:00,23.4,16.0,30.01,WNW,285,22.0,22.0,73,0.00,,,0.01,meteohub,2013-12-05 15:37:00,
2013-12-05 09:42:00,23.4,16.0,30.02,West,281,8.0,24.0,73,0.00,,,0.01,meteohub,2013-12-05 15:42:00,
2013-12-05 09:47:00,23.4,16.3,30.02,NW,306,12.0,24.0,74,0.00,,,0.01,meteohub,2013-12-05 15:47:00,
2013-12-05 09:52:00,23.5,16.5,30.03,WNW,291,8.0,24.0,74,0.00,,,0.01,meteohub,2013-12-05 15:52:00,
2013-12-05 09:57:00,23.5,16.5,30.03,West,259,9.0,24.0,74,0.00,,,0.01,meteohub,2013-12-05 15:57:00,
2013-12-05 10:02:00,23.7,16.9,30.03,West,263,6.0,22.0,75,0.00,,,0.01,meteohub,2013-12-05 16:02:00,
2013-12-05 10:07:00,23.9,17.8,30.03,WNW,291,11.0,22.0,77,0.00,,,0.01,meteohub,2013-12-05 16:07:00,
2013-12-05 10:12:00,23.7,16.9,30.03,NW,304,10.0,22.0,75,0.00,,,0.01,meteohub,2013-12-05 16:12:00,
2013-12-05 10:17:00,23.4,16.0,30.04,WNW,295,19.0,21.0,73,0.00,,,0.01,meteohub,2013-12-05 16:17:00,
2013-12-05 10:22:00,23.2,15.8,30.04,WNW,291,14.0,23.0,73,0.00,,,0.01,meteohub,2013-12-05 16:22:00,
2013-12-05 10:27:00,23.4,16.0,30.04,WNW,301,21.0,23.0,73,0.00,,,0.01,meteohub,2013-12-05 16:27:00,
2013-12-05 10:32:00,23.0,15.6,30.04,WNW,301,11.0,27.0,73,0.00,,,0.01,meteohub,2013-12-05 16:32:00,
2013-12-05 10:37:00,23.4,16.7,30.03,WNW,287,8.0,27.0,75,0.00,,,0.01,meteohub,2013-12-05 16:37:00,
2013-12-05 10:42:00,23.5,16.2,30.03,West,271,10.0,27.0,73,0.00,,,0.01,meteohub,2013-12-05 16:42:00,
2013-12-05 10:47:00,23.5,16.2,30.04,WNW,296,11.0,22.0,73,0.00,,,0.01,meteohub,2013-12-05 16:47:00,
2013-12-05 10:52:00,23.4,16.3,30.04,West,272,8.0,23.0,74,0.00,,,0.01,meteohub,2013-12-05 16:52:00,
2013-12-05 10:57:00,23.4,16.0,30.04,WNW,295,8.0,23.0,73,0.00,,,0.01,meteohub,2013-12-05 16:57:00,
2013-12-05 11:02:00,23.2,15.3,30.04,West,281,11.0,21.0,71,0.00,,,0.01,meteohub,2013-12-05 17:02:00,
2013-12-05 11:07:00,23.2,15.8,30.04,WNW,291,9.0,22.0,73,0.00,,,0.01,meteohub,2013-12-05 17:07:00,
2013-12-05 11:12:00,23.4,15.6,30.04,WNW,294,18.0,22.0,72,0.00,,,0.01,meteohub,2013-12-05 17:12:00,
2013-12-05 11:17:00,23.4,15.4,30.04,WNW,289,15.0,22.0,71,0.00,,,0.01,meteohub,2013-12-05 17:17:00,
2013-12-05 11:22:00,23.4,15.6,30.04,WNW,294,10.0,23.0,72,0.00,,,0.01,meteohub,2013-12-05 17:22:00,
2013-12-05 11:27:00,23.5,15.8,30.04,WNW,302,8.0,23.0,72,0.00,,,0.01,meteohub,2013-12-05 17:27:00,
2013-12-05 11:32:00,23.2,15.3,30.04,WNW,298,13.0,23.0,71,0.00,,,0.01,meteohub,2013-12-05 17:32:00,
2013-12-05 11:37:00,23.5,15.4,30.04,West,278,7.0,22.0,71,0.00,,,0.01,meteohub,2013-12-05 17:37:00,
2013-12-05 11:42:00,23.7,15.1,30.04,West,263,12.0,22.0,69,0.00,,,0.01,meteohub,2013-12-05 17:42:00,
2013-12-05 11:47:00,23.7,15.1,30.04,NW,309,12.0,22.0,69,0.00,,,0.01,meteohub,2013-12-05 17:47:00,
2013-12-05 11:52:00,23.9,15.8,30.04,WNW,286,15.0,22.0,71,0.00,,,0.01,meteohub,2013-12-05 17:52:00,
2013-12-05 11:57:00,24.3,16.0,30.04,WNW,288,16.0,22.0,70,0.00,,,0.01,meteohub,2013-12-05 17:57:00,
2013-12-05 12:02:00,24.1,15.8,30.05,WNW,301,10.0,23.0,70,0.00,,,0.01,meteohub,2013-12-05 18:02:00,
2013-12-05 12:07:00,24.3,16.2,30.05,WNW,286,10.0,26.0,71,0.00,,,0.01,meteohub,2013-12-05 18:07:00,
2013-12-05 12:12:00,24.1,15.4,30.05,NW,306,15.0,26.0,69,0.00,,,0.01,meteohub,2013-12-05 18:12:00,
2013-12-05 12:17:00,23.9,15.3,30.06,WNW,301,13.0,25.0,69,0.00,,,0.01,meteohub,2013-12-05 18:17:00,
2013-12-05 12:22:00,23.7,15.4,30.06,NW,315,10.0,25.0,70,0.00,,,0.01,meteohub,2013-12-05 18:22:00,
2013-12-05 12:27:00,24.4,16.0,30.06,WNW,298,9.0,25.0,70,0.00,,,0.01,meteohub,2013-12-05 18:27:00,
2013-12-05 12:32:00,24.3,15.6,30.06,WNW,282,9.0,18.0,69,0.00,,,0.01,meteohub,2013-12-05 18:32:00,
2013-12-05 12:37:00,24.1,16.0,30.06,West,275,7.0,22.0,71,0.00,,,0.01,meteohub,2013-12-05 18:37:00,
2013-12-05 12:42:00,24.1,16.0,30.06,SW,236,10.0,22.0,71,0.00,,,0.01,meteohub,2013-12-05 18:42:00,
2013-12-05 12:47:00,24.3,16.0,30.06,West,279,7.0,22.0,70,0.00,,,0.01,meteohub,2013-12-05 18:47:00,
2013-12-05 12:52:00,24.3,16.2,30.07,WNW,291,13.0,24.0,71,0.00,,,0.01,meteohub,2013-12-05 18:52:00,
2013-12-05 12:57:00,24.4,16.0,30.07,NW,313,11.0,24.0,70,0.00,,,0.01,meteohub,2013-12-05 18:57:00,
2013-12-05 13:02:00,24.3,15.3,30.08,West,265,7.0,24.0,68,0.00,,,0.01,meteohub,2013-12-05 19:02:00,
2013-12-05 13:07:00,24.4,15.8,30.08,West,279,12.0,19.0,69,0.00,,,0.01,meteohub,2013-12-05 19:07:00,
2013-12-05 13:12:00,24.4,15.8,30.08,WNW,290,11.0,19.0,69,0.00,,,0.01,meteohub,2013-12-05 19:12:00,
2013-12-05 13:17:00,24.4,15.8,30.08,West,281,13.0,19.0,69,0.00,,,0.01,meteohub,2013-12-05 19:17:00,
2013-12-05 13:22:00,24.3,15.3,30.08,WNW,300,9.0,24.0,68,0.00,,,0.01,meteohub,2013-12-05 19:22:00,
2013-12-05 13:27:00,24.1,15.4,30.08,NW,311,11.0,24.0,69,0.00,,,0.01,meteohub,2013-12-05 19:27:00,
2013-12-05 13:32:00,24.3,16.0,30.08,WNW,297,8.0,24.0,70,0.00,,,0.01,meteohub,2013-12-05 19:32:00,
2013-12-05 13:37:00,24.6,16.2,30.08,WNW,294,11.0,20.0,70,0.00,,,0.01,meteohub,2013-12-05 19:37:00,
2013-12-05 13:42:00,24.3,15.6,30.08,NW,304,8.0,14.0,69,0.00,,,0.01,meteohub,2013-12-05 19:42:00,
2013-12-05 13:47:00,24.3,16.0,30.09,WNW,295,14.0,20.0,70,0.00,,,0.01,meteohub,2013-12-05 19:47:00,
2013-12-05 13:52:00,24.1,15.4,30.09,WNW,302,12.0,20.0,69,0.00,,,0.01,meteohub,2013-12-05 19:52:00,
2013-12-05 13:57:00,24.3,15.6,30.08,WNW,286,8.0,21.0,69,0.00,,,0.01,meteohub,2013-12-05 19:57:00,
2013-12-05 14:02:00,24.3,15.6,30.07,WSW,256,12.0,21.0,69,0.00,,,0.01,meteohub,2013-12-05 20:02:00,
2013-12-05 14:07:00,24.3,15.3,30.08,West,275,8.0,20.0,68,0.00,,,0.01,meteohub,2013-12-05 20:07:00,
2013-12-05 14:12:00,24.4,15.4,30.09,West,266,12.0,16.0,68,0.00,,,0.01,meteohub,2013-12-05 20:12:00,
2013-12-05 14:17:00,24.1,15.1,30.09,West,271,9.0,15.0,68,0.00,,,0.01,meteohub,2013-12-05 20:17:00,
2013-12-05 14:22:00,24.1,14.7,30.10,WNW,291,10.0,16.0,67,0.00,,,0.01,meteohub,2013-12-05 20:22:00,
2013-12-05 14:27:00,24.3,15.6,30.09,NW,310,10.0,16.0,69,0.00,,,0.01,meteohub,2013-12-05 20:27:00,
2013-12-05 14:32:00,24.3,14.9,30.09,WNW,299,10.0,19.0,67,0.00,,,0.01,meteohub,2013-12-05 20:32:00,
2013-12-05 14:37:00,24.1,15.1,30.10,WNW,290,7.0,19.0,68,0.00,,,0.01,meteohub,2013-12-05 20:37:00,
2013-12-05 14:42:00,24.1,14.7,30.11,WNW,286,9.0,19.0,67,0.00,,,0.01,meteohub,2013-12-05 20:42:00,
2013-12-05 14:47:00,24.1,15.1,30.11,NW,310,7.0,22.0,68,0.00,,,0.01,meteohub,2013-12-05 20:47:00,
2013-12-05 14:52:00,24.1,14.7,30.10,WNW,288,7.0,22.0,67,0.00,,,0.01,meteohub,2013-12-05 20:52:00,
2013-12-05 14:57:00,24.1,15.1,30.10,West,259,7.0,19.0,68,0.00,,,0.01,meteohub,2013-12-05 20:57:00,
2013-12-05 15:02:00,23.9,14.5,30.10,NW,313,10.0,19.0,67,0.00,,,0.01,meteohub,2013-12-05 21:02:00,
2013-12-05 15:07:00,23.9,14.9,30.10,West,279,5.0,19.0,68,0.00,,,0.01,meteohub,2013-12-05 21:07:00,
2013-12-05 15:12:00,24.1,15.1,30.10,WNW,302,6.0,19.0,68,0.00,,,0.01,meteohub,2013-12-05 21:12:00,
2013-12-05 15:17:00,23.9,14.9,30.10,NNW,333,8.0,18.0,68,0.00,,,0.01,meteohub,2013-12-05 21:17:00,
2013-12-05 15:22:00,23.9,14.5,30.11,West,279,7.0,18.0,67,0.00,,,0.01,meteohub,2013-12-05 21:22:00,
2013-12-05 15:27:00,23.9,14.9,30.12,West,276,10.0,16.0,68,0.00,,,0.01,meteohub,2013-12-05 21:27:00,
2013-12-05 15:32:00,23.9,14.9,30.12,West,281,9.0,16.0,68,0.00,,,0.01,meteohub,2013-12-05 21:32:00,
2013-12-05 15:37:00,23.9,14.9,30.12,WNW,293,6.0,15.0,68,0.00,,,0.01,meteohub,2013-12-05 21:37:00,
2013-12-05 15:42:00,24.1,15.8,30.13,NW,316,12.0,15.0,70,0.00,,,0.01,meteohub,2013-12-05 21:42:00,
2013-12-05 15:47:00,23.9,15.3,30.14,West,271,7.0,16.0,69,0.00,,,0.01,meteohub,2013-12-05 21:47:00,
2013-12-05 15:52:00,23.7,15.1,30.14,West,277,5.0,16.0,69,0.00,,,0.01,meteohub,2013-12-05 21:52:00,
2013-12-05 15:57:00,23.7,15.6,30.14,SSW,194,6.0,18.0,71,0.00,,,0.01,meteohub,2013-12-05 21:57:00,
2013-12-05 16:02:00,23.5,15.3,30.14,West,264,8.0,18.0,70,0.00,,,0.01,meteohub,2013-12-05 22:02:00,
2013-12-05 16:07:00,23.5,15.3,30.14,West,273,7.0,16.0,70,0.00,,,0.01,meteohub,2013-12-05 22:07:00,
2013-12-05 16:12:00,23.4,15.1,30.14,WNW,293,6.0,16.0,70,0.00,,,0.01,meteohub,2013-12-05 22:12:00,
2013-12-05 16:17:00,23.4,15.1,30.14,WSW,257,6.0,16.0,70,0.00,,,0.01,meteohub,2013-12-05 22:17:00,
2013-12-05 16:22:00,23.2,14.5,30.15,NW,305,7.0,15.0,69,0.00,,,0.01,meteohub,2013-12-05 22:22:00,
2013-12-05 16:27:00,23.2,14.5,30.16,WNW,292,8.0,15.0,69,0.00,,,0.01,meteohub,2013-12-05 22:27:00,
2013-12-05 16:32:00,23.0,14.4,30.16,NW,305,6.0,15.0,69,0.00,,,0.01,meteohub,2013-12-05 22:32:00,
2013-12-05 16:37:00,23.2,14.5,30.17,WSW,248,3.0,15.0,69,0.00,,,0.01,meteohub,2013-12-05 22:37:00,
2013-12-05 16:42:00,23.0,14.4,30.17,WNW,291,6.0,15.0,69,0.00,,,0.01,meteohub,2013-12-05 22:42:00,
2013-12-05 16:47:00,23.2,14.9,30.17,WNW,289,8.0,12.0,70,0.00,,,0.01,meteohub,2013-12-05 22:47:00,
2013-12-05 16:52:00,23.0,14.0,30.18,West,267,11.0,15.0,68,0.00,,,0.01,meteohub,2013-12-05 22:52:00,
2013-12-05 16:57:00,22.8,14.2,30.18,WSW,255,6.0,21.0,69,0.00,,,0.01,meteohub,2013-12-05 22:57:00,
2013-12-05 17:02:00,22.8,14.2,30.18,SSW,207,7.0,21.0,69,0.00,,,0.01,meteohub,2013-12-05 23:02:00,
2013-12-05 17:07:00,22.8,14.5,30.18,West,267,10.0,21.0,70,0.00,,,0.01,meteohub,2013-12-05 23:07:00,
2013-12-05 17:12:00,22.6,14.4,30.18,WSW,250,2.0,19.0,70,0.00,,,0.01,meteohub,2013-12-05 23:12:00,
2013-12-05 17:17:00,22.5,14.2,30.19,West,271,7.0,19.0,70,0.00,,,0.01,meteohub,2013-12-05 23:17:00,
2013-12-05 17:22:00,22.5,14.5,30.19,WNW,288,10.0,15.0,71,0.00,,,0.01,meteohub,2013-12-05 23:22:00,
2013-12-05 17:27:00,22.5,14.5,30.19,NW,304,12.0,14.0,71,0.00,,,0.01,meteohub,2013-12-05 23:27:00,
2013-12-05 17:32:00,22.6,14.9,30.20,WNW,293,11.0,14.0,72,0.00,,,0.01,meteohub,2013-12-05 23:32:00,
2013-12-05 17:37:00,22.5,14.5,30.20,WNW,288,7.0,15.0,71,0.00,,,0.01,meteohub,2013-12-05 23:37:00,
2013-12-05 17:42:00,22.5,14.5,30.21,WNW,291,4.0,15.0,71,0.00,,,0.01,meteohub,2013-12-05 23:42:00,
2013-12-05 17:47:00,22.5,14.5,30.21,NW,311,8.0,15.0,71,0.00,,,0.01,meteohub,2013-12-05 23:47:00,
2013-12-05 17:52:00,22.5,14.2,30.21,NW,309,9.0,18.0,70,0.00,,,0.01,meteohub,2013-12-05 23:52:00,
2013-12-05 17:57:00,22.5,14.5,30.22,NW,317,8.0,18.0,71,0.00,,,0.01,meteohub,2013-12-05 23:57:00,
2013-12-05 18:02:00,22.3,14.0,30.22,WNW,296,8.0,13.0,70,0.00,,,0.01,meteohub,2013-12-06 00:02:00,
2013-12-05 18:07:00,22.3,14.0,30.22,WNW,302,10.0,14.0,70,0.00,,,0.00,meteohub,2013-12-06 00:07:00,
2013-12-05 18:12:00,22.3,14.4,30.23,NW,319,6.0,14.0,71,0.00,,,0.00,meteohub,2013-12-06 00:12:00,
2013-12-05 18:17:00,21.9,13.3,30.23,WNW,286,10.0,14.0,69,0.00,,,0.00,meteohub,2013-12-06 00:17:00,
2013-12-05 18:22:00,21.7,13.5,30.24,West,275,9.0,15.0,70,0.00,,,0.00,meteohub,2013-12-06 00:22:00,
2013-12-05 18:27:00,21.6,13.3,30.24,NW,306,8.0,18.0,70,0.00,,,0.00,meteohub,2013-12-06 00:27:00,
2013-12-05 18:32:00,21.6,13.3,30.24,West,277,7.0,18.0,70,0.00,,,0.00,meteohub,2013-12-06 00:32:00,
2013-12-05 18:37:00,21.6,13.6,30.24,West,265,9.0,18.0,71,0.00,,,0.00,meteohub,2013-12-06 00:37:00,
2013-12-05 18:42:00,21.6,13.3,30.25,WSW,257,8.0,15.0,70,0.00,,,0.00,meteohub,2013-12-06 00:42:00,
2013-12-05 18:47:00,21.6,13.6,30.25,WNW,282,8.0,15.0,71,0.00,,,0.00,meteohub,2013-12-06 00:47:00,
2013-12-05 18:52:00,21.4,13.5,30.25,West,281,10.0,15.0,71,0.00,,,0.00,meteohub,2013-12-06 00:52:00,
2013-12-05 18:57:00,21.4,13.5,30.25,NW,326,5.0,15.0,71,0.00,,,0.00,meteohub,2013-12-06 00:57:00,
2013-12-05 19:02:00,21.4,13.8,30.25,NW,310,8.0,15.0,72,0.00,,,0.00,meteohub,2013-12-06 01:02:00,
2013-12-05 19:07:00,21.4,13.8,30.25,WNW,298,8.0,15.0,72,0.00,,,0.00,meteohub,2013-12-06 01:07:00,
2013-12-05 19:12:00,21.4,14.0,30.26,West,279,12.0,15.0,73,0.00,,,0.00,meteohub,2013-12-06 01:12:00,
2013-12-05 19:17:00,21.2,13.3,30.26,NW,310,9.0,19.0,71,0.00,,,0.00,meteohub,2013-12-06 01:17:00,
2013-12-05 19:22:00,21.0,13.1,30.25,NW,317,8.0,19.0,71,0.00,,,0.00,meteohub,2013-12-06 01:22:00,
2013-12-05 19:27:00,21.0,13.5,30.25,WNW,299,10.0,21.0,72,0.00,,,0.00,meteohub,2013-12-06 01:27:00,
2013-12-05 19:32:00,21.0,14.0,30.25,WNW,284,8.0,21.0,74,0.00,,,0.00,meteohub,2013-12-06 01:32:00,
2013-12-05 19:37:00,20.8,13.6,30.25,WNW,286,10.0,21.0,73,0.00,,,0.00,meteohub,2013-12-06 01:37:00,
2013-12-05 19:42:00,20.8,12.9,30.25,NW,309,12.0,15.0,71,0.00,,,0.00,meteohub,2013-12-06 01:42:00,
2013-12-05 19:47:00,20.8,12.9,30.26,West,274,9.0,22.0,71,0.00,,,0.00,meteohub,2013-12-06 01:47:00,
2013-12-05 19:52:00,20.7,13.1,30.26,WNW,294,6.0,22.0,72,0.00,,,0.00,meteohub,2013-12-06 01:52:00,
2013-12-05 19:57:00,20.7,13.1,30.26,NNW,327,7.0,19.0,72,0.00,,,0.00,meteohub,2013-12-06 01:57:00,
2013-12-05 20:02:00,20.7,12.7,30.27,NNW,329,7.0,14.0,71,0.00,,,0.00,meteohub,2013-12-06 02:02:00,
2013-12-05 20:07:00,20.7,13.1,30.26,WNW,295,7.0,14.0,72,0.00,,,0.00,meteohub,2013-12-06 02:07:00,
2013-12-05 20:12:00,20.5,12.9,30.26,NW,310,9.0,18.0,72,0.00,,,0.00,meteohub,2013-12-06 02:12:00,
2013-12-05 20:17:00,20.5,12.9,30.26,West,275,8.0,18.0,72,0.00,,,0.00,meteohub,2013-12-06 02:17:00,
2013-12-05 20:22:00,20.3,13.1,30.26,West,270,9.0,18.0,73,0.00,,,0.00,meteohub,2013-12-06 02:22:00,
2013-12-05 20:27:00,20.5,13.3,30.26,NNW,333,12.0,19.0,73,0.00,,,0.00,meteohub,2013-12-06 02:27:00,
2013-12-05 20:32:00,20.3,13.1,30.26,NW,319,10.0,19.0,73,0.00,,,0.00,meteohub,2013-12-06 02:32:00,
2013-12-05 20:37:00,20.3,13.1,30.27,WNW,298,9.0,19.0,73,0.00,,,0.00,meteohub,2013-12-06 02:37:00,
2013-12-05 20:42:00,20.1,12.9,30.27,NNW,327,15.0,19.0,73,0.00,,,0.00,meteohub,2013-12-06 02:42:00,
2013-12-05 20:47:00,20.1,12.9,30.27,WNW,289,11.0,19.0,73,0.00,,,0.00,meteohub,2013-12-06 02:47:00,
2013-12-05 20:52:00,19.9,12.7,30.28,West,275,10.0,15.0,73,0.00,,,0.00,meteohub,2013-12-06 02:52:00,
2013-12-05 20:57:00,19.9,12.7,30.28,NW,306,9.0,19.0,73,0.00,,,0.00,meteohub,2013-12-06 02:57:00,
2013-12-05 21:02:00,19.8,12.2,30.28,NW,305,8.0,19.0,72,0.00,,,0.00,meteohub,2013-12-06 03:02:00,
2013-12-05 21:07:00,19.8,12.6,30.28,WNW,296,14.0,19.0,73,0.00,,,0.00,meteohub,2013-12-06 03:07:00,
2013-12-05 21:12:00,19.8,12.6,30.28,WNW,300,9.0,16.0,73,0.00,,,0.00,meteohub,2013-12-06 03:12:00,
2013-12-05 21:17:00,19.8,12.6,30.28,WNW,294,9.0,16.0,73,0.00,,,0.00,meteohub,2013-12-06 03:17:00,
2013-12-05 21:22:00,19.6,12.6,30.28,WNW,294,7.0,15.0,74,0.00,,,0.00,meteohub,2013-12-06 03:22:00,
2013-12-05 21:27:00,19.6,12.6,30.28,WNW,301,11.0,15.0,74,0.00,,,0.00,meteohub,2013-12-06 03:27:00,
2013-12-05 21:32:00,19.4,12.6,30.28,NW,324,9.0,13.0,74,0.00,,,0.00,meteohub,2013-12-06 03:32:00,
2013-12-05 21:37:00,19.2,12.6,30.28,NW,314,9.0,14.0,75,0.00,,,0.00,meteohub,2013-12-06 03:37:00,
2013-12-05 21:42:00,19.2,12.6,30.28,NW,319,6.0,14.0,75,0.00,,,0.00,meteohub,2013-12-06 03:42:00,
2013-12-05 21:47:00,19.2,12.6,30.28,WNW,301,5.0,14.0,75,0.00,,,0.00,meteohub,2013-12-06 03:47:00,
2013-12-05 21:52:00,19.0,12.4,30.28,NW,322,7.0,12.0,75,0.00,,,0.00,meteohub,2013-12-06 03:52:00,
2013-12-05 21:57:00,19.0,12.4,30.28,NW,306,4.0,13.0,75,0.00,,,0.00,meteohub,2013-12-06 03:57:00,
2013-12-05 22:02:00,19.0,12.4,30.29,NW,315,7.0,13.0,75,0.00,,,0.00,meteohub,2013-12-06 04:02:00,
2013-12-05 22:07:00,19.0,12.4,30.29,WNW,297,6.0,13.0,75,0.00,,,0.00,meteohub,2013-12-06 04:07:00,
2013-12-05 22:12:00,19.0,12.4,30.29,WNW,300,8.0,12.0,75,0.00,,,0.00,meteohub,2013-12-06 04:12:00,
2013-12-05 22:17:00,19.0,12.7,30.30,NW,315,8.0,11.0,76,0.00,,,0.00,meteohub,2013-12-06 04:17:00,
2013-12-05 22:22:00,18.9,12.2,30.30,NW,323,5.0,12.0,75,0.00,,,0.00,meteohub,2013-12-06 04:22:00,
2013-12-05 22:27:00,18.9,12.6,30.30,NW,307,7.0,13.0,76,0.00,,,0.00,meteohub,2013-12-06 04:27:00,
2013-12-05 22:32:00,18.9,12.9,30.30,NW,304,8.0,13.0,77,0.00,,,0.00,meteohub,2013-12-06 04:32:00,
2013-12-05 22:37:00,18.9,13.1,30.31,NW,311,6.0,13.0,78,0.00,,,0.00,meteohub,2013-12-06 04:37:00,
2013-12-05 22:42:00,18.9,12.6,30.31,NW,311,10.0,12.0,76,0.00,,,0.00,meteohub,2013-12-06 04:42:00,
2013-12-05 22:47:00,18.7,12.7,30.31,NW,304,8.0,12.0,77,0.00,,,0.00,meteohub,2013-12-06 04:47:00,
2013-12-05 22:52:00,18.5,12.6,30.31,WNW,295,5.0,11.0,77,0.00,,,0.00,meteohub,2013-12-06 04:52:00,
2013-12-05 22:57:00,18.5,12.6,30.32,NW,312,7.0,11.0,77,0.00,,,0.00,meteohub,2013-12-06 04:57:00,
2013-12-05 23:01:00,18.5,12.6,30.32,NW,318,7.0,12.0,77,0.00,,,0.00,meteohub,2013-12-06 05:01:00,
2013-12-05 23:02:00,18.5,12.6,30.32,NW,320,5.0,12.0,77,0.00,,,0.00,meteohub,2013-12-06 05:02:00,
2013-12-05 23:04:00,18.7,12.9,30.32,NNW,327,9.0,12.0,78,0.00,,,0.00,meteohub,2013-12-06 05:04:00,
2013-12-05 23:09:00,18.3,12.4,30.32,NW,315,3.0,12.0,77,0.00,,,0.00,meteohub,2013-12-06 05:09:00,
2013-12-05 23:14:00,18.5,12.2,30.33,WNW,297,7.0,12.0,76,0.00,,,0.00,meteohub,2013-12-06 05:14:00,
2013-12-05 23:19:00,18.3,11.7,30.33,NW,319,8.0,14.0,75,0.00,,,0.00,meteohub,2013-12-06 05:19:00,
2013-12-05 23:24:00,18.3,12.0,30.33,NW,321,7.0,15.0,76,0.00,,,0.00,meteohub,2013-12-06 05:24:00,
2013-12-05 23:29:00,18.3,11.5,30.33,NW,325,8.0,15.0,74,0.00,,,0.00,meteohub,2013-12-06 05:29:00,
2013-12-05 23:35:00,18.1,11.5,30.33,NW,318,11.0,15.0,75,0.00,,,0.00,meteohub,2013-12-06 05:35:00,
2013-12-05 23:40:00,18.3,12.4,30.33,NW,311,14.0,15.0,77,0.00,,,0.00,meteohub,2013-12-06 05:40:00,
2013-12-05 23:45:00,18.1,11.5,30.33,NW,320,9.0,16.0,75,0.00,,,0.00,meteohub,2013-12-06 05:45:00,
2013-12-05 23:50:00,18.1,11.8,30.33,WNW,301,9.0,14.0,76,0.00,,,0.00,meteohub,2013-12-06 05:50:00,
2013-12-05 23:55:00,18.1,12.2,30.32,WNW,300,9.0,15.0,77,0.00,,,0.00,meteohub,2013-12-06 05:55:00,